GEESAT 4-11

导读

GEESAT 4-11是中国于2025年8月8日发射的低轨商业卫星,隶属于吉利科技集团旗下时空道宇GeeSAT星座体系。该星座主打模块化量产路线,具备高弹性、高性能特性,GEESAT 4-11将与已组网卫星协同,服务于天地一体化信息网络建设,可为物联网、智能出行、地理测绘等领域提供天基支撑,助力中国商业低轨卫星星座的组网进程。

基本信息
目录编号:
65129
目录名称:
GEESAT 4-11
国际标识:
2025-170L
轨道中心:
EARTH
卫星名称:
GEESAT 4-11
卫星全名:
GEESAT 4-11
卫星状态:
在轨 (已飞行400 天)
发射日期:
2025-08-08 UTC
国别 :
中国 (CN)
星等 :
--
该卫星已列入 空间交会检测服务 Space Conjunction Data Service (SCDS) ,当前飞行风险评估等级: 无高风险
轨道信息
数据来源 国际轨道数据 AOE轨道数据
星历时间 2026-09-12T05:32:58+0800
7小时前
查看轨道信息
2026-09-10T22:00:00+0800
1天前
查看轨道信息
半长轴 6994.07km 6994.093km
偏心率 0.0007261 0.0007588
轨道倾角 49.983° 49.982°
近地点辐角 63.790° 57.942°
升交点赤经 131.497° 137.599°
平近点角 296.379° 113.039°
近地点 610.854km 610.648km
远地点 621.012km 621.264km
周期 97.019分钟 97.019分钟
每日圈数 14.842526 14.842453
详细信息
使用方式:
暂无
2D轨道图
3D轨道图
轨道高度分析图
轨道倾角分析图
轨道综合分析图
查看轨道综合分析图
交会数据列表
事件ID 空间交会对象 最接近时刻(TCA) 交会距离 交会风险概率(CRP) 交会风险指数(CRI) 操作
CDM_260913-044406-512906-737725
AETHER-6 (67377)
2026-09-13T
04:44:34+0000
2.225 km
极远距离
2.078995E-6 低风险 0.41
CDM_260914-073002-112606-512922
SL-3 DEB (21126)
2026-09-14T
07:30:11+0000
2.953 km
极远距离
1.174979E-6 低风险 0.36
CDM_260913-094100-321206-512922
2026-09-13T
09:41:01+0000
2.703 km
极远距离
1.142804E-6 低风险 0.36
与全量物体交会距离演化趋势
与全量物体交会风险概率演化趋势